Regional Weather Roundup
Issued by NWS

Home | Current Version | Previous Version | Text Only | Print | Product List | Glossary On
Versions: 1 2 3 4 5 6 7 8 9 10 11 12 13 14 15 16 17 18 19 20 21 22 23 24 25 26 27 28 29 30 31 32 33 34 35 36 37 38 39 40 41 42 43 44 45 46 47 48 49 50
000
ASUS43 KTOP 190208
RWRKS

WEATHER ROUNDUP FOR KANSAS
NATIONAL WEATHER SERVICE GOODLAND KS
800 PM CST SAT NOV 18 2017

NOTE:  "FAIR" INDICATES FEW OR NO CLOUDS BELOW 12,000 FEET WITH NO
SIGNIFICANT WEATHER AND/OR OBSTRUCTIONS TO VISIBILITY.

KSZ001>006-013>018-027>032-041>047-190300-
NORTHWEST KANSAS

CITY           SKY/WX    TMP DP  RH WIND       PRES   REMARKS
GOODLAND       CLEAR     28  15  58 W7        30.25R
HAYS           CLEAR     35  21  56 NW8       30.26R
HILL CITY      CLEAR     37  21  52 NW9       30.26R
RUSSELL        CLEAR     37  24  59 W6        30.24R
$$

KSZ061>065-074>080-084>089-190300-
SOUTHWEST KANSAS

CITY           SKY/WX    TMP DP  RH WIND       PRES   REMARKS
DODGE CITY     CLEAR     32  16  51 NW8       30.28R
ELKHART        CLEAR     40  18  41 S3        30.29S
GARDEN CITY    CLEAR     31  14  49 W3        30.28R
GREAT BEND     CLEAR     32  25  75 W9        30.26R
LIBERAL        CLEAR     29  14  53 NW7       30.31R
PRATT          CLEAR     34  23  64 NW9       30.27R
$$

KSZ066>073-081>083-090>101-190300-
SOUTHEAST KANSAS

CITY           SKY/WX    TMP DP  RH WIND       PRES   REMARKS
CHANUTE        CLEAR     44  29  55 NW6       30.18R
COFFEYVILLE    CLEAR     44  31  60 NW7       30.19R
HUTCHINSON     CLEAR     39  24  55 NW7       30.23R
MEDICINE LODGE   N/A     37  22  54 N5        30.26R
NEWTON         CLEAR     39  24  55 NW8       30.23R
PARSONS        CLEAR     40  31  70 NW5       30.20R
WICHITA INTL   CLEAR     41  26  55 NW9       30.23R
WICHITA JABRA  CLEAR     43  25  49 NW10      30.22R
WICHITA MCCONL CLEAR     45  22  40 NW7       30.22R
WINFIELD       CLEAR     40  26  57 NW6       30.23R
$$

KSZ007>012-019>026-033>040-048>060-102>105-190300-
NORTHEAST KANSAS

CITY           SKY/WX    TMP DP  RH WIND       PRES   REMARKS
CONCORDIA      CLEAR     37  25  61 W8        30.22R
EMPORIA        CLEAR     43  27  53 NW9       30.19R
LAWRENCE       CLEAR     40  29  64 NW9       30.17R
MANHATTAN      CLEAR     40  27  59 CALM      30.21R
MARYSVILLE     CLEAR     36  28  75 NW6       30.20R
OLATHE IND     CLEAR     42  28  57 NW13      30.15R
OLATHE EXE     CLEAR     43  26  51 NW9       30.14R
SALINA         CLEAR     40  25  55 W6        30.24R
TOPEKA BILLARD CLEAR     43  28  55 NW9       30.17R
TOPEKA FORBES  CLEAR     42  28  57 NW10      30.17R
$$




USA.gov is the U.S. government's official web portal to all federal, state and local government web resources and services.